Tracking 20719 objects as of 24-May-2020
HD Live streaming from Space Station
objects crossing your sky now

USA 28

Track USA 28 now!
USA 28 is classified as:


NORAD ID: 18583
Int'l Code: 1987-097A
Perigee: 36,246.3 km
Apogee: 36,415.3 km
Inclination: 14.0 °
Period: 1,463.6 minutes
Semi major axis: 42701 km
RCS: Unknown
Launch date: November 29, 1987
Source: United States (US)
Launch site: AIR FORCE EASTERN TEST RANGE (AFETR)
aabbcc
Your satellite tracking list
Your tracking list is empty




NASA's NSSDC Master Catalog

Two Line Element Set (TLE):
1 18583U 87097A   20143.81510147 -.00000000 +00000-0 +00000-0 0  9994
2 18583 014.0220 353.3074 0019793 228.6076 031.1787 00.98385994002915
Source of the keplerian elements: McCants